RH
37 41 46 51 61 69 69 71 71 68 74 69 63 61 67 61 62 59 58 61 64 66 70 65 56 51 54 56 59 60 60 62 61 59 56 61 56 51 58 49 49 55 66 77 79 78 57 51 52
43 45 47 46 55 63 68 69 75 73 71 73 70 61 62 66 62 51 56 60 63 65 66 66 56 50 53 56 58 59 60 59 61 59 59 63 56 53 59 52 51 59 67 74 76 80 70 66 63
43 46 49 52 57 73 70 66 68 72 69 71 68 62 58 62 65 52 54 58 63 64 64 59 54 50 52 54 56 58 58 57 60 59 63 62 58 64 65 53 53 58 65 68 76 74 79 79 71
59 59 62 64 65 69 69 67 66 67 66 65 60 51 53 56 60 54 55 56 61 61 61 55 51 50 49 50 53 56 57 57 60 64 63 61 68 70 59 53 53 57 59 66 75 76 74 81 76
58 63 63 62 67 65 63 65 65 66 63 61 57 47 51 55 58 56 57 58 59 58 55 53 50 47 48 50 53 54 54 57 61 60 57 63 67 68 63 58 57 57 59 66 76 80 76 72 79
54 59 59 59 61 62 60 60 63 64 60 54 51 53 56 55 55 57 58 58 58 55 52 51 46 50 50 49 50 51 59 64 67 67 69 71 71 71 71 69 63 61 60 62 68 78 79 74 75
55 60 56 57 58 61 57 52 55 55 60 59 56 54 60 60 58 56 58 56 57 53 50 49 50 51 50 50 51 60 63 64 66 71 74 76 76 72 62 63 63 65 64 64 65 71 79 82 80
52 54 56 57 59 57 53 49 47 50 49 54 59 57 53 52 56 58 58 56 53 53 52 54 53 53 55 52 54 62 60 64 69 75 80 86 85 78 69 69 78 82 75 70 69 69 75 85 88
52 61 56 55 56 55 52 52 50 48 51 52 56 58 53 49 47 53 56 56 52 52 53 55 56 58 56 57 58 61 64 68 71 78 84 87 89 77 78 80 82 83 80 75 71 72 76 77 84
49 55 55 51 48 45 44 49 48 49 48 49 52 57 56 59 54 53 57 55 54 53 54 54 54 60 65 67 68 69 69 81 75 78 82 86 88 87 82 88 86 85 83 77 76 74 74 78 85
45 49 47 43 43 43 44 46 46 50 49 48 51 54 58 65 62 59 59 59 56 56 56 57 57 59 62 71 68 72 75 83 80 80 84 86 84 85 90 91 89 89 87 83 84 81 80 86 87
45 36 36 34 40 41 47 46 49 49 47 43 49 53 60 61 59 62 65 64 63 65 68 61 62 60 62 65 69 71 77 84 81 84 80 83 79 83 86 89 89 88 90 86 82 88 86 88 86
36 36 37 35 36 43 41 45 50 51 48 45 47 48 56 60 61 64 70 68 71 70 70 70 68 64 64 63 68 70 72 82 83 85 82 83 85 84 86 87 86 85 85 87 81 89 89 87 88
36 37 35 39 42 44 43 44 45 50 49 49 51 52 55 58 61 64 68 69 70 72 73 79 73 69 68 68 65 68 73 83 83 82 86 85 86 88 85 83 85 85 84 84 81 89 89 89 92
34 36 31 32 38 44 44 45 46 50 51 49 54 54 57 58 56 59 64 70 74 78 79 80 76 71 71 72 69 68 73 77 82 88 91 87 87 90 90 82 79 85 83 82 76 82 84 87 88
39 36 45 33 37 42 41 51 46 48 51 53 54 58 59 61 59 64 69 75 77 82 82 86 82 75 74 74 73 71 72 78 81 91 94 89 89 87 93 86 77 81 82 84 75 79 88 89 92
38 46 39 38 37 43 42 46 47 48 50 53 56 58 59 59 61 58 68 75 82 80 85 91 86 88 82 76 75 74 72 72 80 90 92 91 88 85 89 89 80 80 82 84 77 74 82 90 85
45 41 38 41 39 39 44 43 45 46 49 54 58 60 59 59 60 61 58 64 66 76 84 90 92 93 93 86 82 78 73 76 81 87 92 93 91 82 80 88 85 80 83 83 80 74 84 87 85
30 35 40 38 37 42 46 45 45 44 47 51 55 59 58 59 59 60 58 58 65 78 81 91 94 92 91 92 86 82 77 81 83 83 88 90 89 85 79 81 86 81 81 82 80 74 87 86 83
34 40 42 38 36 41 45 40 41 42 45 46 50 53 54 59 61 58 56 53 62 79 85 93 98 94 90 90 82 80 81 84 83 84 88 90 82 82 89 84 89 90 81 79 75 72 85 88 83
40 41 38 38 39 40 45 45 40 40 41 44 44 47 52 57 61 59 50 53 59 74 80 85 89 91 93 83 80 86 89 86 87 90 86 81 81 81 90 88 89 90 83 79 71 69 78 86 87
41 33 35 36 34 43 43 46 44 39 39 41 41 43 50 55 58 54 44 50 60 72 78 78 82 83 76 77 84 92 88 89 90 89 86 85 82 87 87 85 87 85 83 79 66 69 72 77 88
37 31 36 40 36 42 40 40 41 36 34 36 37 41 50 57 54 46 43 48 60 68 70 74 78 76 77 76 79 84 87 89 90 86 84 83 82 85 85 85 86 84 80 76 73 75 65 75 84
30 30 35 36 33 37 34 35 34 37 39 32 34 39 44 52 48 42 44 50 55 63 64 70 71 73 72 74 78 82 87 88 84 82 83 75 78 80 86 86 84 80 78 77 73 73 69 68 77
27 30 40 38 35 32 39 30 35 33 35 31 30 38 44 48 51 44 43 50 53 60 62 66 68 67 71 74 78 77 78 81 81 80 78 78 82 84 86 85 81 81 80 79 73 63 68 69 71
28 37 39 37 31 30 37 32 33 27 23 25 30 41 45 48 52 51 42 47 50 59 62 64 66 68 71 73 74 72 75 75 77 74 80 83 84 84 82 82 82 81 79 70 66 71 73 74 75
31 30 33 30 28 27 26 31 29 29 21 30 38 42 47 50 53 54 42 45 48 53 59 60 62 65 71 73 72 74 74 72 74 83 74 75 85 86 85 80 78 81 79 72 72 72 72 72 71
28 35 34 30 33 33 28 29 30 28 35 38 37 39 45 51 54 56 45 46 48 51 55 59 62 67 72 74 76 73 70 75 88 80 76 79 80 78 76 78 79 76 73 74 71 69 67 64 62
28 26 25 29 30 30 29 25 25 30 33 33 34 36 43 51 55 57 45 48 50 53 56 59 63 66 69 73 73 74 79 88 86 67 63 68 65 73 63 66 64 78 77 72 67 70 70 64 60
28 30 31 31 32 32 27 23 24 28 29 32 33 38 45 54 57 57 42 45 48 52 57 59 59 63 67 69 71 74 73 56 38 37 30 28 28 33 42 42 43 62 75 73 72 67 65 66 66